Weather Roundup
Issued by NWS Chicago, IL

Home | Current Version | Previous Version | Text Only | Print | Product List | Glossary Off
Versions: 1 2 3 4 5 6 7 8 9 10 11 12 13 14 15 16 17 18 19 20 21 22 23 24 25 26 27 28 29 30 31 32 33 34 35 36 37 38 39 40 41 42 43 44 45 46 47 48 49 50

000
NZUS59 KLOT 290503
HRRLOT

CHICAGO AREA WEATHER ROUNDUP
NATIONAL WEATHER SERVICE CHICAGO/ROMEOVILLE IL
1200 AM CDT WED MAR 29 2017

NOTE: "FAIR" INDICATES FEW OR NO CLOUDS BELOW 12,000 FEET WITH NO
SIGNIFICANT WEATHER AND/OR OBSTRUCTIONS TO VISIBILITY.

* THESE STATIONS ARE NOT UNDER NWS QUALITY CONTROL. THEY ALSO MAY NOT
  REPORT WEATHER SUCH AS PRECIPITATION OR FOG.

ILZ005-006-012>014-019>023-290600-
NORTHEAST ILLINOIS

CITY           SKY/WX    TMP DP  RH WIND       PRES   REMARKS
OHARE          CLOUDY    36  34  92 NE10      30.23R FOG
MIDWAY         CLOUDY    38  36  92 NE9       30.23R
AURORA         CLOUDY    44  38  79 E8        30.21S
LANSING*       CLOUDY    39  39  99 NE10      30.22S
JOLIET*        CLOUDY    44  40  86 E7        30.21F
WAUKEGAN       FOG       34  34 100 N6        30.24S VSB 1/4 WCI  29
DUPAGE AIRPORT CLOUDY    40  38  93 NE8       30.21S
WHEELING       FOG       34  34 100 NE10      30.25S VSB 1/2 WCI  26
MORRIS*        CLOUDY    43  39  86 E3        30.20F
NORTHERLY ISL    N/A     35  34  96 NE9         N/A  WCI  28
$$

WIZ051-052-058>065-066-070>072-290600-
SOUTHEAST WISCONSIN

CITY           SKY/WX    TMP DP  RH WIND       PRES   REMARKS
MILWAUKEE      FOG       34  33  96 VRB5      30.25S VSB 1/4 WCI  30
KENOSHA*       FOG       34  34 100 CALM      30.24S VSB<1/4
RACINE*        FOG       33  32  96 N9        30.26S VSB 1/4 WCI  25
WEST BEND      FOG       32  32 100 CALM      30.25S VSB 1/4
$$

INZ001>003-010>013-019-020-290600-
NORTHWEST INDIANA

CITY           SKY/WX    TMP DP  RH WIND       PRES   REMARKS
GARY*          LGT SNOW  38  36  94 NE9       30.23S VSB 3/4
MICHIGAN CITY* NOT AVBL
RENSSELAER*    NOT AVBL
VALPARAISO     CLOUDY    42  39  89 NE6       30.20F
$$

LMZ740>746-290600-
SOUTHERN LAKE MICHIGAN

STATION/POSITION TIME  SKY/WX   TEMP WIND        PRES    VSBY
                                AIR  DIR/SP/G
                 (UTC)          (F)  (DEG/KT/KT) (MB)    (MI)
HARRISON CRIB    0440            35   40/ 10/ 11   N/A
BURNHAM HARBOR   0500            35  350/  9/ 13   N/A
CALUMET HARBOR   0430            35   30/ 10/ 14 1023.1R
BURNS HARBOR     0440            36   50/ 12/ 14 1023.7F
MICHIGAN CITY    0440            35   40/ 11/ 12   N/A
$$

ABBREVIATIONS USED IN REMARKS
   TC - TEMPERATURE IN CELSIUS
  WCI - WIND CHILL INDEX
   HX - HEAT INDEX
  VSB - VISIBILITY
$$



USA.gov is the U.S. government's official web portal to all federal, state and local government web resources and services.